Simultaneous Nadir Overpasses (SNOs) Predictions

Prediction of SNOs between METOP-B and NOAA-19 Satellite Orbit:

Table of predicted SNOs for the next 14.0 days since TLE Epoch: 4/23/2022
Index Date (METOP-B) Time (METOP-B) Lat,Lon (METOP-B) SZA (METOP-B ) Date (NOAA-19) Time (NOAA-19) Lat,Lon (NOAA-19) SZA (NOAA-19 ) Distance(km) Time Diff (sec)
1 04/30/2022 20:58:59 -80.82, 78.20 112.58 04/30/2022 20:57:59 -80.82, 78.02 112.62 3.25 60
2 04/30/2022 21:49:40 80.82,-114.55 67.40 04/30/2022 21:48:54 80.82,-114.48 67.39 1.36 46
3 04/30/2022 22:40:21 -80.81, 52.71 112.63 04/30/2022 22:39:58 -80.81, 52.88 112.62 3.07 23
4 04/30/2022 23:31:02 80.81,-140.05 67.36 04/30/2022 23:30:54 80.82,-139.98 67.37 1.45 8
5 05/01/2022 00:21:43 -80.80, 27.21 112.67 05/01/2022 00:21:58 -80.81, 27.38 112.64 3.01 15
6 05/01/2022 01:12:23 80.82,-165.19 67.36 05/01/2022 01:12:53 80.81,-165.11 67.37 1.89 30
7 05/01/2022 02:03:04 -80.82, 2.07 112.66 05/01/2022 02:03:57 -80.81, 2.24 112.63 3.15 53



Historial Predications of SNOs between METOP-B and NOAA-19
